Location: Fenile
(46.0500°N, 9.5500°E)
Time: 13:36:59
(UTC+00:00)

Cosmos 2074 Rocket - Pass Details

Date: 03 March 2021
Orbit: 967 x 987 km, 82.9° (Epoch: 16 April)

Event Time Altitude Azimuth Distance (km) Brightness Sun altitude
Rises 17:33:09 0° 178° (S) 3,676 7.1 -4.6°
Reaches altitude 10° 17:35:40 10° 176° (S) 2,730 6.4 -5.1°
Maximum altitude 17:41:52 70° 94° (E) 1,043 4.0 -6.1°
Drops below altitude 10° 17:48:06 10° 13° (NNE) 2,735 6.2 -7.2°
Sets 17:50:37 0° 11° (N) 3,683 6.9 -7.6°
